Regional Weather Roundup
Issued by NWS Jackson, KY

Home | Current Version | Previous Version | Text Only | Print | Product List | Glossary On
Versions: 1 2 3 4 5 6 7 8 9 10 11 12 13 14 15 16 17 18 19 20 21 22 23 24 25 26 27 28 29 30 31 32 33 34 35 36 37 38 39 40 41 42 43 44 45 46 47 48 49 50
000
ASUS43 KJKL 192019
RWRJKL

EAST KENTUCKY HOURLY WEATHER ROUNDUP
NATIONAL WEATHER SERVICE JACKSON KY
400 PM EDT FRI SEP 19 2014

NOTE: "FAIR" INDICATES FEW OR NO CLOUDS BELOW 12,000 FEET WITH
NO SIGNIFICANT WEATHER AND/OR OBSTRUCTIONS TO VISIBILITY.

* THESE REPORTS ARE NOT UNDER NWS QUALITY CONTROL AND MAY NOT
  REPORT WEATHER SUCH AS PRECIPITATION AND FOG.

KYZ079-080-083-085-087-088-110-112-115-119-120-192100
...EASTERN KENTUCKY...

CITY           SKY/WX    TMP DP  RH WIND       PRES   REMARKS
JACKSON        MOSUNNY   78  60  53 CALM      30.11F
LONDON         MOSUNNY   80  57  45 S3        30.09F
SOMERSET*      MOSUNNY   79  54  41 SW7       30.09F
MONTICELLO*    MOSUNNY   81  59  47 CALM      30.09F
WILLIAMSBURG*  SUNNY     81  59  47 S7        30.08F
MIDDLESBORO*   MOSUNNY   81  60  49 SW3       30.09F
HARLAN APT*    PTCLDY    79  54  41 MISG      30.10F
BLACK MTN*       N/A     70  59  68 SE1         N/A
PIKEVILLE APT* SUNNY     77  63  61 N5        30.11F
BIG SANDY*     CLEAR     77  63  61 CALM      30.11S
MOREHEAD APT*  CLEAR     75  54  46 E7        30.13S
$$

KYZ035-036-041-042-044-050-067-078-099-192100
...CENTRAL KENTUCKY...

CITY           SKY/WX    TMP DP  RH WIND       PRES   REMARKS
MT STERLING*   SUNNY     75  55  50 SE7       30.12F
FLEMING/MASON* SUNNY     75  54  46 CALM      30.12F
DANVILLE*      SUNNY     77  57  50 NE3       30.10S
RICHMOND*      SUNNY     77  55  47 CALM      30.09S
LEXINGTON      SUNNY     78  55  44 NE6       30.10F
FRANKFORT      SUNNY     76  53  44 E9        30.09F
$$

KYZ091>093-OHZ055-061-077-WVZ005-015-034-035-042-192100
...SOUTHERN OHIO/WEST VIRGINIA...

CITY           SKY/WX    TMP DP  RH WIND       PRES   REMARKS
COVINGTON      MOSUNNY   75  47  36 E9        30.11F
COLUMBUS       MOSUNNY   76  43  30 VRB3      30.13F
DAYTON         MOSUNNY   74  44  34 N3        30.15S
WILMINGTON     SUNNY     74  43  32 S6        30.12F
HUNTINGTON     SUNNY     75  59  57 VRB3      30.10F
CHARLESTON     MOSUNNY   78  63  59 E6        30.10F
PINEVILLE*     CLOUDY    80  65  59 MISG      30.18F
BECKLEY        MOSUNNY   67  58  72 SE18      30.20F
BLUEFIELD      PTSUNNY   70  58  65 MISG      30.22S
$$

VAZ002-007-008-TNZ017-027-036-066-071-192100
...SOUTHWEST VIRGINIA/EAST TENNESSEE...

CITY           SKY/WX    TMP DP  RH WIND       PRES   REMARKS
WISE*          MOSUNNY   73  55  53 S7        30.17F
JONESVILLE*    PTCLDY    81  57  44 CALM      30.12S
ABINGDON*      SUNNY     77  60  54 S9G17     30.16S
BRISTOL        PTSUNNY   79  58  48 E10G17    30.11S
KNOXVILLE      MOSUNNY   85  60  42 N8        30.05F
OAK RIDGE      MOSUNNY   82  58  43 CALM      30.08F
CROSSVILLE     PTSUNNY   77  59  53 S5        30.11F
NASHVILLE      MOSUNNY   87  61  41 VRB5      30.03F
$$

...KEY TO REMARKS...
VSB - VISIBILITY IN MILES
WCI - WIND CHILL INDEX
HX  - HEAT INDEX

$$



USA.gov is the U.S. government's official web portal to all federal, state and local government web resources and services.